Moses Lake, WA
on Saturday, November 17, 2012

Saturday
Previous Day Next Day
Daily Summary
 ActualAverageRecord
Temperature
Mean Temperature °F / °C 37°F / 3°C  
Max Temperature 45°F / 7°C 45°F / 7°C 57°F / 13°C (1983)
Min Temperature 36°F / 2°C 29°F / -2°C 14°F / -10°C (1985)
Degree Days
Heating Degree Days 24 28  
Month to date heating degree days 395 424  
Since 1 July heating degree days 920 1061  
Cooling Degree Days 0 0  
Month to date cooling degree days 0 0  
Year to date cooling degree days 719 615  
Moisture
Dew Point 37°F / 3°C   
Average Humidity 88    
Maximum Humidity 92    
Minimum Humidity 83    
Precipitation
Precipitation 0.06 in / 1.52 cm 0.04 in / 1.02 cm 0.30 in / 0.76 cm (1981)
Month to date precipitation 0.68 0.65  
Year to date precipitation 7.28 7.12  
Wind
Wind Speed 5 mph / 8 km/h   
Max Wind Speed 17 mph / 27 km/h   
Max Gust Speed 21 mph / 34 km/h   
Visibility 8 miles / 13 kilometers   
Events Rain   

Key: T is trace of precipitation, MM is missing value
Source: NWS Daily Summary
Time(PST)TemperatureDew PointHumidity Pressure Visibility Wind DirectionWind SpeedGust SpeedPrecipitationEvents Conditions
12:38 AM 39.2°F / 4.0°C 35.6°F / 2.0°C 87% 29.89 in / 1012.1 hPa 10.0 miles / 16.1 kilometers Calm Calm - N/A   Overcast
12:52 AM 37.9°F / 3.3°C 35.1°F / 1.7°C 89% 29.91 in / 1012.8 hPa 9.0 miles / 14.5 kilometers NNW 4.6 mph / 7.4 km/h - N/A   Overcast
1:52 AM 39.0°F / 3.9°C 35.1°F / 1.7°C 86% 29.89 in / 1012.2 hPa 9.0 miles / 14.5 kilometers NNW 3.5 mph / 5.6 km/h - N/A   Overcast
2:39 AM 39.2°F / 4.0°C 35.6°F / 2.0°C 87% 29.86 in / 1011.1 hPa 9.0 miles / 14.5 kilometers NW 4.6 mph / 7.4 km/h - N/A   Overcast
2:52 AM 39.0°F / 3.9°C 35.1°F / 1.7°C 86% 29.88 in / 1011.6 hPa 10.0 miles / 16.1 kilometers NW 3.5 mph / 5.6 km/h - N/A   Overcast
3:25 AM 37.4°F / 3.0°C 33.8°F / 1.0°C 87% 29.84 in / 1010.4 hPa 9.0 miles / 14.5 kilometers NW 3.5 mph / 5.6 km/h - N/A   Overcast
3:52 AM 37.9°F / 3.3°C 34.0°F / 1.1°C 86% 29.86 in / 1010.9 hPa 10.0 miles / 16.1 kilometers NNW 4.6 mph / 7.4 km/h - N/A   Overcast
4:52 AM 37.0°F / 2.8°C 34.0°F / 1.1°C 89% 29.83 in / 1010.1 hPa 7.0 miles / 11.3 kilometers NNE 3.5 mph / 5.6 km/h - N/A   Overcast
5:52 AM 36.0°F / 2.2°C 33.1°F / 0.6°C 89% 29.82 in / 1009.8 hPa 6.0 miles / 9.7 kilometers Calm Calm - N/A   Mostly Cloudy
6:52 AM 37.0°F / 2.8°C 34.0°F / 1.1°C 89% 29.81 in / 1009.2 hPa 6.0 miles / 9.7 kilometers Calm Calm - N/A   Overcast
7:52 AM 37.0°F / 2.8°C 34.0°F / 1.1°C 89% 29.80 in / 1009.0 hPa 4.0 miles / 6.4 kilometers Calm Calm - 0.02 in / 0.5 cm   Overcast
8:52 AM 37.9°F / 3.3°C 35.1°F / 1.7°C 89% 29.77 in / 1008.1 hPa 6.0 miles / 9.7 kilometers Calm Calm - N/A   Overcast
9:52 AM 39.9°F / 4.4°C 36.0°F / 2.2°C 86% 29.74 in / 1007.1 hPa 7.0 miles / 11.3 kilometers NNE 4.6 mph / 7.4 km/h - 0.00 in / 0.0 cm Rain Light Rain
10:28 AM 41.0°F / 5.0°C 37.4°F / 3.0°C 87% 29.70 in / 1005.6 hPa 8.0 miles / 12.9 kilometers North 4.6 mph / 7.4 km/h - N/A   Overcast
10:52 AM 42.1°F / 5.6°C 39.0°F / 3.9°C 89% 29.70 in / 1005.7 hPa 10.0 miles / 16.1 kilometers North 3.5 mph / 5.6 km/h - N/A   Overcast
11:52 AM 45.0°F / 7.2°C 39.9°F / 4.4°C 82% 29.67 in / 1004.5 hPa 10.0 miles / 16.1 kilometers Calm Calm - 0.00 in / 0.0 cm   Scattered Clouds
12:00 PM 44.6°F / 7.0°C 39.2°F / 4.0°C 81% 29.64 in / 1003.6 hPa 10.0 miles / 16.1 kilometers West 3.5 mph / 5.6 km/h - N/A   Mostly Cloudy
12:52 PM 45.0°F / 7.2°C 39.9°F / 4.4°C 82% 29.63 in / 1003.3 hPa 10.0 miles / 16.1 kilometers Calm Calm - N/A   Mostly Cloudy
1:52 PM 45.0°F / 7.2°C 39.0°F / 3.9°C 80% 29.62 in / 1003.0 hPa 10.0 miles / 16.1 kilometers SSW 3.5 mph / 5.6 km/h - N/A   Overcast
2:52 PM 45.0°F / 7.2°C 39.9°F / 4.4°C 82% 29.60 in / 1002.4 hPa 10.0 miles / 16.1 kilometers WSW 3.5 mph / 5.6 km/h - 0.00 in / 0.0 cm   Overcast
3:16 PM 44.6°F / 7.0°C 39.2°F / 4.0°C 81% 29.58 in / 1001.6 hPa 9.0 miles / 14.5 kilometers Calm Calm - N/A   Overcast
3:38 PM 44.6°F / 7.0°C 39.2°F / 4.0°C 81% 29.57 in / 1001.2 hPa 9.0 miles / 14.5 kilometers Calm Calm - N/A   Overcast
3:45 PM 44.6°F / 7.0°C 39.2°F / 4.0°C 81% 29.57 in / 1001.2 hPa 7.0 miles / 11.3 kilometers ESE 3.5 mph / 5.6 km/h - 0.00 in / 0.0 cm Rain Light Rain
3:52 PM 44.1°F / 6.7°C 39.9°F / 4.4°C 85% 29.59 in / 1001.8 hPa 7.0 miles / 11.3 kilometers East 3.5 mph / 5.6 km/h - 0.00 in / 0.0 cm Rain Light Rain
4:52 PM 43.0°F / 6.1°C 39.9°F / 4.4°C 89% 29.58 in / 1001.5 hPa 7.0 miles / 11.3 kilometers ESE 5.8 mph / 9.3 km/h - 0.00 in / 0.0 cm   Mostly Cloudy
5:52 PM 43.0°F / 6.1°C 39.9°F / 4.4°C 89% 29.60 in / 1002.3 hPa 7.0 miles / 11.3 kilometers WSW 10.4 mph / 16.7 km/h - N/A   Overcast
6:06 PM 42.8°F / 6.0°C 39.2°F / 4.0°C 87% 29.58 in / 1001.6 hPa 7.0 miles / 11.3 kilometers WSW 8.1 mph / 13.0 km/h - 0.01 in / 0.3 cm   Overcast
6:52 PM 43.0°F / 6.1°C 39.0°F / 3.9°C 86% 29.60 in / 1002.2 hPa 8.0 miles / 12.9 kilometers WSW 6.9 mph / 11.1 km/h - 0.01 in / 0.3 cm   Overcast
7:52 PM 42.1°F / 5.6°C 39.0°F / 3.9°C 89% 29.62 in / 1003.1 hPa 7.0 miles / 11.3 kilometers SW 8.1 mph / 13.0 km/h - 0.00 in / 0.0 cm Rain Light Rain
8:52 PM 42.1°F / 5.6°C 39.0°F / 3.9°C 89% 29.65 in / 1003.8 hPa 7.0 miles / 11.3 kilometers South 13.8 mph / 22.2 km/h - 0.01 in / 0.3 cm Rain Light Rain
9:52 PM 42.1°F / 5.6°C 39.0°F / 3.9°C 89% 29.67 in / 1004.5 hPa 7.0 miles / 11.3 kilometers South 9.2 mph / 14.8 km/h - 0.02 in / 0.5 cm   Overcast
10:20 PM 42.8°F / 6.0°C 39.2°F / 4.0°C 87% 29.66 in / 1004.3 hPa 8.0 miles / 12.9 kilometers South 12.7 mph / 20.4 km/h - N/A   Overcast
10:52 PM 43.0°F / 6.1°C 39.0°F / 3.9°C 86% 29.70 in / 1005.7 hPa 10.0 miles / 16.1 kilometers SSW 10.4 mph / 16.7 km/h - N/A   Clear
11:52 PM 42.1°F / 5.6°C 37.9°F / 3.3°C 85% 29.73 in / 1006.5 hPa 10.0 miles / 16.1 kilometers South 11.5 mph / 18.5 km/h - N/A   Clear
Moon Phase
Nov. 17 Nov. 20 Nov. 28 Dec. 06 Dec. 13
Sunrise:07:05 AM (PST) Moon Rise:10:53 AM (PST)11/17
Sunset:04:19 PM (PST) Moon Set:08:36 PM (PST)11/17

Copyright © 2014 The Weather Underground, Inc.